Regional Weather Roundup
Issued by NWS Upton, NY

Current Version | Previous Version | Text Only | Print | Product List | Glossary On
Versions: 1 2 3 4 5 6 7 8 9 10 11 12 13 14 15 16 17 18 19 20 21 22 23 24 25 26 27 28 29 30 31 32 33 34 35 36 37 38 39 40 41 42 43 44 45 46 47 48 49 50
000
ASUS41 KOKX 252205
RWROKX

Regional Weather Roundup
National Weather Service New York NY
500 PM EST SUN FEB 25 2018

Note: "FAIR" indicates few or no clouds below 12,000 feet with no
significant weather and/or obstructions to visibility.

NYZ071-072-176-178-NJZ106-104-252300-
New York City Metro Area

CITY           SKY/WX    TMP DP  RH WIND       PRES   REMARKS
Central Park   CLOUDY    43  40  89 NE6       29.99F
Bronx Bot Gard   N/A     41  39  93 NW2       30.00R
Bronx Lehman C   N/A     43  41  93 NE2         N/A
LaGuardia Arpt CLOUDY    42  40  92 NE9       29.97F FOG
Queens College   N/A     41  39  93 NE6         N/A
Kennedy Intl   CLOUDY    42  41  96 N9        29.99S
Breezy Point     N/A     41 N/A N/A N8          N/A
Brooklyn Coll    N/A     41  39  93 NW9         N/A
Staten Island    N/A     43  41  93 N5          N/A
Newark/Liberty DRIZZLE   43  41  93 NE6       29.98F
Teterboro      DRIZZLE   44  41  89 CALM      29.97F
$$

NYZ177-179-078>081-252300-
Long Island New York

CITY           SKY/WX    TMP DP  RH WIND       PRES   REMARKS
Jones Beach      N/A     41 N/A N/A N8          N/A
Wantagh          N/A     41  39  93 N7          N/A
Hempstead        N/A     41  39  93 NE2       30.00R
Matinecock Pt    N/A     39 N/A N/A E9          N/A  WCI  33
Farmingdale    CLOUDY    42  40  92 NE7       29.97R
MacArthur/ISP  CLOUDY    42  42 100 N8        29.95R
Stony Brook U    N/A     41  41 100 N3          N/A
Shirley        CLOUDY    42  42 100 N5        29.94S
Mt Sinai Harb    N/A    N/A N/A N/A NW1         N/A
Westhampton    CLOUDY    43  42  97 NE10      29.93R
East Hampton   CLOUDY    41  40  97 N8G16     29.91F FOG
Southold         N/A     41  41 100 N8          N/A
Montauk          N/A     42  42 100 N9        29.93S
$$

NYZ052-065-067-252300-
Hudson Valley

CITY           SKY/WX    TMP DP  RH WIND       PRES   REMARKS
White Plains   LGT RAIN  42  41  96 NW3       29.95F
Larchmont Harb   N/A     39 N/A N/A E5          N/A
Croton On Huds   N/A     43 N/A N/A MISG        N/A
Somers           N/A     41  41 100 N1          N/A
Brewster         N/A     41  39  93 N3          N/A
Newburgh       LGT RAIN  41  41 100 VRB6      29.95F FOG
Montgomery     CLOUDY    42  40  92 CALM      29.94F
Otisville        N/A     39  39 100 CALM        N/A
Warwick          N/A     41  41 100 E2          N/A
Suffern          N/A     41  41 100 CALM        N/A
Poughkeepsie   CLOUDY    43  40  89 E3        29.95F
Albany         CLOUDY    42  36  79 S7        29.94F
$$

NJZ001-105-106-008-010-013-015-019>022-104-252300-
New Jersey

CITY           SKY/WX    TMP DP  RH WIND       PRES   REMARKS
Newark/Liberty DRIZZLE   43  41  93 NE6       29.98F
Teterboro      DRIZZLE   44  41  89 CALM      29.97F
Caldwell       CLOUDY    42  42 100 CALM      29.98F
Somerville     CLOUDY    44  43  96 SE3       29.96S
Linden         CLOUDY    44  41  90 CALM      29.99R
Perth Amboy      N/A     43 N/A N/A N6          N/A
Sussex         CLOUDY    43  41  93 CALM      29.95F
Andover          N/A     43  41  93 CALM      29.96F
Trenton        CLOUDY    45  44  97 CALM      29.97R
Millville      MOCLDY    51  49  92 W5        29.97R
Atlantic City  CLOUDY    51  51 100 N5        29.96
Wrightstown    CLOUDY    46  44  96 N6        29.96
Toms River     NOT AVBL
Belmar         CLOUDY    43  42  97 N7        29.99R
$$

PAZ047>061-062-071-252300-
Eastern Pennsylvania

CITY           SKY/WX    TMP DP  RH WIND       PRES   REMARKS
Philadelphia   CLOUDY    47  45  93 NE8       29.98R
Allentown      CLOUDY    47  42  83 SE3       29.96F
Scranton       CLOUDY    46  44  93 N3        29.92R
$$

CTZ002-004>006-009-010-012-RIZ004-006-007-MAZ004-011-015-252300-
Southern New England

 In CT

CITY           SKY/WX    TMP DP  RH WIND       PRES   REMARKS
Bradley Intl   CLOUDY    39  38  96 N8        29.98F WCI  33
Hartford       CLOUDY    41  39  93 N10       29.98F
Danbury        CLOUDY    42  40  92 CALM      29.97S
Wtrbury/Oxford CLOUDY    40  38  93 NE7       29.95S
Norwalk Harbor   N/A     43 N/A N/A N6          N/A
Bridgeport     CLOUDY    44  41  89 N7        29.96F
Meriden        CLOUDY    41  39  93 N8        29.97S
New Haven      CLOUDY    44  41  89 N10       29.95R
Chester        CLOUDY    43  41  93 N9        29.94F
Groton         CLOUDY    44  41  89 N12       29.93F
Willimantic    CLOUDY    42  39  89 NE8       29.96F

 In RI

CITY           SKY/WX    TMP DP  RH WIND       PRES   REMARKS
Providence     DRIZZLE   42  42 100 N12       29.97F FOG
Block Island   LGT RAIN  41  41 100 NE12G21   29.90F FOG
Westerly       CLOUDY    44  43  96 N10       29.94F FOG

In MA

CITY           SKY/WX    TMP DP  RH WIND       PRES   REMARKS
Boston         LGT RAIN  40  39  97 NE13      30.02R VSB 3/4 WCI  32
Worcester      FOG       35  34  96 NE9       29.96F VSB 1/2 WCI  28
Westfield      CLOUDY    37  37 100 N10       29.98F WCI  30
Provincetown   LGT RAIN  42  41  96 E16G26    29.96R FOG
Nantucket      LGT RAIN  45  45 100 SE26G33   29.84F FOG
$$

ANZ330-335-338-340-345-350-353-355-252300-
Coastal Marine Observations


STATION/POSITION TIME  SKY/WX   TEMP    WIND        PRES    VSBY  WAVE
                                AIR SEA DIR/SP/G                  HT/PER
                 (UTC)          (F)     (DEG/KT/KT) (MB)    (MI)  (FT/S)
NY Harb Entrance 2150            40 39  330/  6/ 10 1014.9          5/ 8
20 S Fire Island 2150            42 43  340/ 12/ 16 1013.7          6/ 7
23 SSW Montauk P 2150            42 43  330/ 16/ 17 1012.7          6/ 8
15 E Barnegat Li 2130               42                N/A           5/ 6
Hudson Canyon    2150            47 46  270/ 14/ 16 1013.4          6/ 8
Kings Point      2148            40 38   50/  9/ 11 1016.2
Execution Rocks  NOT AVBL
Western LI Sound NOT AVBL
Central LI Sound 2115            40      30/  8/ 10   N/A           3
Robbins Reef     2148            43      10/ 12/ 14 1016.1
$$


>>>>>>>>>>>>>>>>>>>>>>>>>>>> KEY <<<<<<<<<<<<<<<<<<<<<<<<<<<
>                                                          <
>     SKY/WX - Sky Condition/Present Weather               <
>     TMP    - Temperature in Fahrenheit                   <
>     DP     - Dew Point in Fahrenheit                     <
>     RH     - Relative Humidity in Percent                <
>     WIND   - Direction (from) and Speed in MPH           <
>     PRES   - Mean Sea Level Pressure (inches of Hg)      <
>     WCI    - Wind Chill Index                            <
>     VSB    - Visibility in Miles                         <
>     HX     - Heat Index                                  <
>     TC     - Temperature in Celsius                      <
>     VRB    - Varibale Wind Direction                     <
>                                                          <
>>>>>>>>>>>>>>>>>>>>>>>>>>>> KEY <<<<<<<<<<<<<<<<<<<<<<<<<<<



USA.gov is the U.S. government's official web portal to all federal, state and local government web resources and services.